Вернуться в каталог

CUBESAT XI 5

АктивенЛюбительское радиоSSO
NORAD 28895·PAYLOAD·🇯🇵 Japan

Запущен Oct 27, 2005 с Plesetsk Cosmodrome

Loading…

Ближайшие Пролёты (ближайшие 24 часа)

TLE

СвежийSource: Space-Track

Эпоха: Sep 13, 2026, 09:17 UTC

1 28895U 05043F   26256.38689568  .00000953  00000-0  15723-3 0  9996
2 28895  98.3101  53.9328 0012785 287.3059  72.6748 14.72823236114731

Отслеживайте CUBESAT XI 5 в реальном времени с AllMySat

Download on the App Store